sat.trackr.live / text

‹ back to catalog

STARLINK-35799

NORAD 66290 · 2025-247AB

PAYLOAD ACTIVE UNKNOWN

§ Identity

Operator
Country
US
Launch date
2025-10-31
Launch site
AFWTR
Launch vehicle
Mass (kg)
RCS (m²)

Purposes: comms

External: N2YO · Heavens-Above · Gunter

§ Orbital elements

Epoch: 2026-09-20T21:04:26.037696Z

Period
93.85 min
Inclination
53.1610°
Eccentricity
0.0001279
Mean motion
15.34400719 rev/d
Perigee alt
461.8 km
Apogee alt
463.6 km
Semi-major
6,840.8 km
B*
5.9268e-4
RAAN
0.1461°
Arg perigee
61.8608°
Mean anomaly
298.2524°
Rev number
5,103

§ Raw data

STARLINK-357991 66290U 25247AB  26263.87807914  .00019702  00000+0  59268-3 0  99972 66290  53.1610   0.1461 0001279  61.8608 298.2524 15.34400719 51036

JSON: /api/v1/satellites/66290 · /tle

For live sub-satellite position, see the globe view (requires WebGL).

§ Visibility from observer

Set your observer location to see the next 7 days of passes ≥ 10°. The values pass through the URL so the page stays shareable.

No JS? Fill the form by hand. The geolocation button needs JavaScript.